ANS552 SAEZ-SARC

Flight info

Callsign ANS552
Flight time 1h 12m
Altitude 37000
Route LANDA3A LANDA UN785 GUA UL793 KILIP KILIP2Z
Aircraft B737/M-MSDFGHILRVWSB1/LB1

Departure

Time 2026-04-30 19:20
Airport Ezeiza International Airport - Ministro Pistarini (SAEZ)

Arrival

Time 2026-04-30 20:32
Airport Corrientes Airport (SARC)
Time Latitude Longitude Altitude Speed Heading
2026-04-30 18:39 -34.80821 -58.53783 74 ft 0 kts 252°
2026-04-30 18:45 -34.80817 -58.53767 66 ft 0 kts 252°
2026-04-30 19:09 -34.80813 -58.53752 62 ft 3 kts 251°
2026-04-30 19:09 -34.80806 -58.53729 71 ft 3 kts 248°
2026-04-30 19:09 -34.80798 -58.53706 66 ft 3 kts 242°
2026-04-30 19:10 -34.80774 -58.53671 72 ft 3 kts 193°
2026-04-30 19:10 -34.80764 -58.53670 66 ft 0 kts 164°
2026-04-30 19:13 -34.80784 -58.53663 70 ft 8 kts 164°
2026-04-30 19:13 -34.80892 -58.53588 69 ft 11 kts 104°
2026-04-30 19:13 -34.80884 -58.53512 73 ft 0 kts 76°
2026-04-30 19:15 -34.80882 -58.53505 74 ft 4 kts 76°
2026-04-30 19:15 -34.80867 -58.53429 84 ft 14 kts 81°
2026-04-30 19:16 -34.80970 -58.53347 85 ft 26 kts 163°
2026-04-30 19:16 -34.81185 -58.53271 85 ft 36 kts 164°
2026-04-30 19:16 -34.81646 -58.53110 74 ft 32 kts 164°
2026-04-30 19:17 -34.81851 -58.53040 81 ft 29 kts 165°
2026-04-30 19:17 -34.82081 -58.52749 66 ft 26 kts 103°
2026-04-30 19:17 -34.82120 -58.52545 75 ft 24 kts 103°
2026-04-30 19:18 -34.82183 -58.52228 68 ft 22 kts 104°
2026-04-30 19:18 -34.82231 -58.51989 72 ft 22 kts 104°
2026-04-30 19:18 -34.82268 -58.51813 70 ft 21 kts 106°
2026-04-30 19:19 -34.82357 -58.51795 65 ft 14 kts 194°
2026-04-30 19:19 -34.82449 -58.51824 81 ft 13 kts 194°
2026-04-30 19:19 -34.82462 -58.52235 79 ft 82 kts 283°
2026-04-30 19:20 -34.82280 -58.53235 93 ft 156 kts 285°
2026-04-30 19:20 -34.82053 -58.54622 750 ft 170 kts 282°
2026-04-30 19:20 -34.81701 -58.57551 2483 ft 190 kts 281°
2026-04-30 19:21 -34.81241 -58.59192 2785 ft 218 kts 312°
2026-04-30 19:21 -34.78293 -58.60009 3920 ft 247 kts
2026-04-30 19:22 -34.74741 -58.59625 5882 ft 259 kts
2026-04-30 19:22 -34.69221 -58.59244 8759 ft 271 kts 359°
2026-04-30 19:23 -34.63324 -58.59030 10667 ft 313 kts 357°
2026-04-30 19:24 -34.58683 -58.58915 11604 ft 345 kts 357°
2026-04-30 19:24 -34.56263 -58.58856 12422 ft 349 kts 357°
2026-04-30 19:24 -34.51339 -58.58745 13978 ft 359 kts 356°
2026-04-30 19:25 -34.43764 -58.58588 16210 ft 369 kts 355°
2026-04-30 19:26 -34.38563 -58.58484 17629 ft 378 kts 355°
2026-04-30 19:26 -34.33257 -58.58378 18923 ft 385 kts 354°
2026-04-30 19:26 -34.30554 -58.58325 19509 ft 388 kts 354°
2026-04-30 19:27 -34.25123 -58.58215 20779 ft 393 kts 354°
2026-04-30 19:27 -34.19635 -58.58106 21924 ft 400 kts 354°
2026-04-30 19:28 -34.16837 -58.58050 22468 ft 404 kts 353°
2026-04-30 19:28 -34.11167 -58.57938 23544 ft 411 kts 353°
2026-04-30 19:29 -34.05411 -58.57822 24472 ft 415 kts 353°
2026-04-30 19:29 -34.02518 -58.57763 24941 ft 417 kts 353°
2026-04-30 19:30 -33.93712 -58.57588 26251 ft 425 kts 354°
2026-04-30 19:30 -33.87771 -58.57573 27096 ft 428 kts 351°
2026-04-30 19:31 -33.81800 -58.57852 27904 ft 431 kts 351°
2026-04-30 19:31 -33.78795 -58.58012 28306 ft 433 kts 351°
2026-04-30 19:31 -33.72767 -58.58312 29037 ft 439 kts 351°
2026-04-30 19:32 -33.69706 -58.58452 29412 ft 441 kts 351°
2026-04-30 19:32 -33.66624 -58.58589 29779 ft 444 kts 351°
2026-04-30 19:32 -33.63536 -58.58723 30168 ft 444 kts 351°
2026-04-30 19:32 -33.60463 -58.58853 30706 ft 440 kts 351°
2026-04-30 19:33 -33.57415 -58.58981 31241 ft 436 kts 351°
2026-04-30 19:33 -33.54378 -58.59111 31647 ft 436 kts 351°
2026-04-30 19:33 -33.51342 -58.59243 31985 ft 436 kts 351°
2026-04-30 19:33 -33.48305 -58.59376 32374 ft 436 kts 351°
2026-04-30 19:34 -33.45317 -58.59505 32796 ft 434 kts 351°
2026-04-30 19:34 -33.42308 -58.59634 33208 ft 432 kts 351°
2026-04-30 19:34 -33.36310 -58.59894 33947 ft 430 kts 351°
2026-04-30 19:35 -33.33315 -58.60024 34256 ft 430 kts 351°
2026-04-30 19:35 -33.30333 -58.60153 34551 ft 429 kts 351°
2026-04-30 19:35 -33.27348 -58.60282 34838 ft 428 kts 351°
2026-04-30 19:35 -33.24363 -58.60411 35121 ft 428 kts 351°
2026-04-30 19:36 -33.21422 -58.60538 35395 ft 427 kts 351°
2026-04-30 19:36 -33.18450 -58.60665 35649 ft 427 kts 351°
2026-04-30 19:36 -33.12542 -58.60919 36237 ft 424 kts 350°
2026-04-30 19:37 -33.09578 -58.61047 36447 ft 425 kts 350°
2026-04-30 19:37 -33.06621 -58.61175 36670 ft 425 kts 350°
2026-04-30 19:37 -33.03668 -58.61301 36929 ft 424 kts 350°
2026-04-30 19:37 -33.00703 -58.61430 36946 ft 428 kts 349°
2026-04-30 19:38 -32.94805 -58.61867 36953 ft 426 kts 348°
2026-04-30 19:38 -32.88920 -58.62399 36956 ft 420 kts 348°
2026-04-30 19:39 -32.83102 -58.62912 36968 ft 418 kts 348°
2026-04-30 19:39 -32.77305 -58.63407 36970 ft 416 kts 348°
2026-04-30 19:40 -32.71581 -58.63888 36968 ft 414 kts 347°
2026-04-30 19:40 -32.65826 -58.64371 36968 ft 414 kts 347°
2026-04-30 19:41 -32.60065 -58.64854 36972 ft 416 kts 348°
2026-04-30 19:41 -32.54276 -58.65339 36971 ft 418 kts 348°
2026-04-30 19:42 -32.48446 -58.65826 36963 ft 419 kts 347°
2026-04-30 19:42 -32.42642 -58.66309 36971 ft 421 kts 347°
2026-04-30 19:43 -32.36784 -58.66797 36966 ft 423 kts 348°
2026-04-30 19:44 -32.27969 -58.67523 36963 ft 424 kts 348°
2026-04-30 19:44 -32.22073 -58.68000 36961 ft 424 kts 348°
2026-04-30 19:45 -32.16190 -58.68476 36959 ft 423 kts 348°
2026-04-30 19:45 -32.10353 -58.68948 36961 ft 422 kts 348°
2026-04-30 19:46 -32.04497 -58.69421 36949 ft 421 kts 347°
2026-04-30 19:46 -31.98644 -58.69894 36959 ft 420 kts 347°
2026-04-30 19:47 -31.92823 -58.70364 36956 ft 419 kts 347°
2026-04-30 19:47 -31.87979 -58.70755 36958 ft 419 kts 347°
2026-04-30 19:48 -31.82165 -58.71224 36947 ft 418 kts 347°
2026-04-30 19:48 -31.76352 -58.71691 36956 ft 418 kts 347°
2026-04-30 19:49 -31.70561 -58.72157 36958 ft 418 kts 347°
2026-04-30 19:49 -31.61861 -58.72855 36957 ft 418 kts 347°
2026-04-30 19:50 -31.56091 -58.73317 36952 ft 418 kts 347°
2026-04-30 19:50 -31.50280 -58.73782 36957 ft 418 kts 347°
2026-04-30 19:51 -31.44463 -58.74247 36959 ft 419 kts 347°
2026-04-30 19:51 -31.38639 -58.74712 36955 ft 419 kts 347°
2026-04-30 19:52 -31.32820 -58.75176 36952 ft 419 kts 347°
2026-04-30 19:52 -31.26998 -58.75639 36957 ft 419 kts 347°
2026-04-30 19:53 -31.21163 -58.76103 36954 ft 420 kts 347°
2026-04-30 19:53 -31.15322 -58.76567 36950 ft 420 kts 347°
2026-04-30 19:54 -31.09526 -58.77026 36950 ft 419 kts 347°
2026-04-30 19:54 -31.03705 -58.77487 36955 ft 419 kts 347°
2026-04-30 19:55 -30.97877 -58.77949 36953 ft 419 kts 347°
2026-04-30 19:55 -30.92049 -58.78412 36951 ft 419 kts 347°
2026-04-30 19:56 -30.86233 -58.78909 36942 ft 418 kts 347°
2026-04-30 19:56 -30.80415 -58.79415 36945 ft 418 kts 347°
2026-04-30 19:57 -30.74646 -58.79912 36945 ft 418 kts 347°
2026-04-30 19:57 -30.68837 -58.80410 36950 ft 418 kts 347°
2026-04-30 19:58 -30.63035 -58.80906 36942 ft 418 kts 347°
2026-04-30 19:58 -30.57234 -58.81402 36938 ft 417 kts 347°
2026-04-30 19:59 -30.51429 -58.81898 36941 ft 417 kts 347°
2026-04-30 20:00 -30.42729 -58.82608 36921 ft 418 kts 347°
2026-04-30 20:00 -30.36931 -58.83063 36938 ft 417 kts 347°
2026-04-30 20:01 -30.28269 -58.83746 36945 ft 417 kts 347°
2026-04-30 20:01 -30.22472 -58.84204 36943 ft 417 kts 347°
2026-04-30 20:02 -30.13769 -58.84891 36929 ft 417 kts 347°
2026-04-30 20:03 -30.05121 -58.85573 36939 ft 417 kts 347°
2026-04-30 20:03 -29.99291 -58.86032 36939 ft 417 kts 347°
2026-04-30 20:04 -29.93544 -58.86484 36937 ft 417 kts 347°
2026-04-30 20:05 -29.84851 -58.87167 36938 ft 417 kts 347°
2026-04-30 20:05 -29.76165 -58.87848 36938 ft 417 kts 347°
2026-04-30 20:06 -29.70743 -58.88272 36910 ft 417 kts 347°
2026-04-30 20:06 -29.64954 -58.88726 36931 ft 416 kts 347°
2026-04-30 20:07 -29.59176 -58.89183 36938 ft 416 kts 347°
2026-04-30 20:08 -29.50548 -58.89864 36938 ft 416 kts 347°
2026-04-30 20:08 -29.44765 -58.90320 36927 ft 416 kts 347°
2026-04-30 20:09 -29.39009 -58.90772 36924 ft 411 kts 347°
2026-04-30 20:09 -29.36191 -58.90985 36914 ft 396 kts 346°
2026-04-30 20:09 -29.30897 -58.91381 36913 ft 367 kts 346°
2026-04-30 20:10 -29.25990 -58.91758 36918 ft 340 kts 345°
2026-04-30 20:10 -29.23649 -58.91947 36933 ft 339 kts 345°
2026-04-30 20:11 -29.16435 -58.92550 36827 ft 354 kts 345°
2026-04-30 20:11 -29.13961 -58.92746 36198 ft 359 kts 345°
2026-04-30 20:11 -29.11448 -58.92950 35122 ft 375 kts 346°
2026-04-30 20:12 -29.05948 -58.93396 32813 ft 407 kts 348°
2026-04-30 20:12 -29.03124 -58.93605 32323 ft 403 kts 348°
2026-04-30 20:12 -29.00337 -58.93809 31770 ft 400 kts 349°
2026-04-30 20:13 -28.97522 -58.94027 30485 ft 416 kts 349°
2026-04-30 20:13 -28.94572 -58.94262 29175 ft 431 kts 351°
2026-04-30 20:13 -28.91563 -58.94493 28343 ft 430 kts 351°
2026-04-30 20:13 -28.88600 -58.94718 27813 ft 423 kts 351°
2026-04-30 20:14 -28.85689 -58.94941 27283 ft 416 kts 351°
2026-04-30 20:14 -28.82824 -58.95162 26670 ft 412 kts 351°
2026-04-30 20:14 -28.79966 -58.95383 25868 ft 411 kts 352°
2026-04-30 20:14 -28.77063 -58.95613 24607 ft 423 kts 352°
2026-04-30 20:15 -28.74086 -58.95848 23457 ft 432 kts 353°
2026-04-30 20:15 -28.71080 -58.96082 22460 ft 431 kts 353°
2026-04-30 20:15 -28.68094 -58.96310 22219 ft 432 kts 353°
2026-04-30 20:15 -28.65139 -58.96537 21847 ft 428 kts 353°
2026-04-30 20:16 -28.62215 -58.96759 21374 ft 416 kts 353°
2026-04-30 20:16 -28.59360 -58.96977 20823 ft 406 kts 353°
2026-04-30 20:16 -28.56561 -58.97192 20298 ft 398 kts 353°
2026-04-30 20:16 -28.53823 -58.97403 19792 ft 391 kts 353°
2026-04-30 20:17 -28.51136 -58.97611 19283 ft 384 kts 353°
2026-04-30 20:17 -28.48492 -58.97816 18775 ft 378 kts 353°
2026-04-30 20:17 -28.45876 -58.98018 18276 ft 373 kts 353°
2026-04-30 20:17 -28.43288 -58.98218 17697 ft 369 kts 354°
2026-04-30 20:18 -28.40750 -58.98414 17180 ft 364 kts 354°
2026-04-30 20:18 -28.38235 -58.98607 16681 ft 359 kts 354°
2026-04-30 20:18 -28.35779 -58.98625 16189 ft 357 kts
2026-04-30 20:18 -28.33341 -58.97995 15785 ft 352 kts 12°
2026-04-30 20:19 -28.31009 -58.97308 15302 ft 349 kts 12°
2026-04-30 20:19 -28.29430 -58.96837 14984 ft 346 kts 12°
2026-04-30 20:19 -28.26353 -58.95926 14363 ft 342 kts 12°
2026-04-30 20:19 -28.24057 -58.95254 13901 ft 339 kts 12°
2026-04-30 20:20 -28.21771 -58.94593 13372 ft 337 kts 12°
2026-04-30 20:20 -28.19507 -58.93942 12888 ft 334 kts 12°
2026-04-30 20:20 -28.17263 -58.93299 12418 ft 330 kts 13°
2026-04-30 20:20 -28.15053 -58.92669 11964 ft 326 kts 13°
2026-04-30 20:21 -28.12866 -58.92045 11511 ft 322 kts 13°
2026-04-30 20:21 -28.10700 -58.91429 11062 ft 319 kts 13°
2026-04-30 20:21 -28.08565 -58.90822 10611 ft 316 kts 13°
2026-04-30 20:21 -28.06444 -58.90219 10268 ft 309 kts 13°
2026-04-30 20:22 -28.04431 -58.89646 10150 ft 296 kts 13°
2026-04-30 20:22 -28.02441 -58.89081 10013 ft 284 kts 13°
2026-04-30 20:22 -28.00560 -58.88547 9878 ft 273 kts 13°
2026-04-30 20:22 -27.98783 -58.88042 9548 ft 269 kts 13°
2026-04-30 20:23 -27.96962 -58.87526 9173 ft 268 kts 13°
2026-04-30 20:23 -27.95153 -58.87013 8769 ft 268 kts 13°
2026-04-30 20:23 -27.93349 -58.86502 8416 ft 265 kts 12°
2026-04-30 20:23 -27.91561 -58.85995 8072 ft 264 kts 12°
2026-04-30 20:24 -27.89786 -58.85492 7731 ft 262 kts 12°
2026-04-30 20:24 -27.88023 -58.84993 7400 ft 260 kts 12°
2026-04-30 20:24 -27.86272 -58.84497 7064 ft 258 kts 12°
2026-04-30 20:24 -27.84531 -58.84004 6748 ft 257 kts 12°
2026-04-30 20:25 -27.81081 -58.83028 6079 ft 255 kts 12°
2026-04-30 20:25 -27.79366 -58.82543 5745 ft 253 kts 13°
2026-04-30 20:26 -27.76037 -58.81602 5367 ft 239 kts 13°
2026-04-30 20:26 -27.72937 -58.80726 5147 ft 221 kts 13°
2026-04-30 20:26 -27.71464 -58.80336 4961 ft 216 kts
2026-04-30 20:27 -27.68519 -58.79880 4480 ft 212 kts
2026-04-30 20:27 -27.65612 -58.79443 3979 ft 209 kts
2026-04-30 20:28 -27.63229 -58.79076 3551 ft 206 kts
2026-04-30 20:28 -27.60428 -58.78641 3135 ft 198 kts 10°
2026-04-30 20:29 -27.57730 -58.78221 2690 ft 198 kts 10°
2026-04-30 20:30 -27.53753 -58.77606 1917 ft 177 kts 11°
2026-04-30 20:30 -27.50427 -58.77090 1255 ft 142 kts 12°
2026-04-30 20:31 -27.47586 -58.76650 726 ft 142 kts 11°
2026-04-30 20:32 -27.44730 -58.76205 212 ft 128 kts
2026-04-30 20:32 -27.43753 -58.76055 215 ft 35 kts
2026-04-30 20:33 -27.43547 -58.76029 215 ft 13 kts 345°
2026-04-30 20:33 -27.43589 -58.76031 214 ft 20 kts 189°
2026-04-30 20:33 -27.43785 -58.76060 222 ft 34 kts 188°
2026-04-30 20:34 -27.44218 -58.76128 222 ft 29 kts 188°
2026-04-30 20:34 -27.44594 -58.76187 214 ft 25 kts 188°
2026-04-30 20:35 -27.44730 -58.76208 217 ft 19 kts 182°
2026-04-30 20:35 -27.44793 -58.76100 212 ft 18 kts 100°
2026-04-30 20:35 -27.44814 -58.75939 213 ft 9 kts 98°
2026-04-30 20:36 -27.44809 -58.75868 213 ft 9 kts 86°
2026-04-30 20:36 -27.44813 -58.75837 213 ft 0 kts 100°
2026-04-30 20:36 -27.44813 -58.75832 213 ft 2 kts 100°
2026-04-30 20:37 -27.44826 -58.75820 214 ft 3 kts 175°
2026-04-30 20:37 -27.44849 -58.75825 216 ft 3 kts 189°
2026-04-30 20:37 -27.44862 -58.75827 213 ft 1 kts 188°
2026-04-30 20:37 -27.44864 -58.75827 213 ft 0 kts 188°